Content
SEND FEEDBACK

Daily
Averages
Monthly
Summary
United States of America

PRINCETON, IDAHO


Home > North America > United States > Idaho
Elevation: 2558 feet     Latitude: 46 55N     Longitude: 116 53W

WEATHER
 
SELECT A DAY
Number of Records: 188,268;   Date Range: 1/1/95 - 8/12/14
 
SHARE

PRINT THIS DATA

[ ← Previous Day ]
WEATHER ALMANAC - JANUARY 31, 2013
[ Next Day → ]
[ °C ]   °F
Weather ElementAverageHighLow
Temperature41.2 °F46.4 °F (1:07 pm)37 °F (5:53 am)
Dewpoint36.3 °F37.9 °F (9:53 am)35.1 °F (4:53 am)
Humidity83.4 %97 % (8:53 am)71 % (12:53 pm)
Barometer30.28 in30.33 in (8:53 am)30.24 in (1:40 pm)
Wind Speed6.5 mph17.3 mph (11:53 am)
Wind Gust24.2 mph (12:53 pm)
Weather ElementAverage
Visibility9.9 mi
Wind DirectionSSE (152.6 °)

Weather ElementTotal
Precipitation---
Heating Degree Days23.3 (Base 65)
Averaged from 31 records on January 31, 2013
WEATHER CONDITIONS BREAKOUT
WIND DIRECTION BREAKOUT
WEATHER BY HOUR - JANUARY 31, 2013
[ °C ]   °F
Local TimeTemperatureDewpointHumidityBarometerVisibilityWind DirectionWind SpeedGust SpeedPrecipitationEventsConditions
1:53 AM39.0 °F36.0 °F89 %30.30 in10.0 miSW (220°)9.2 mphMostly Cloudy
2:03 AM39.2 °F35.6 °F87 %30.26 in10.0 miSW (230°)6.9 mphMostly Cloudy
2:49 AM37.4 °F35.6 °F93 %30.27 in10.0 miCalmOvercast
2:53 AM37.9 °F36.0 °F93 %30.31 in10.0 miCalmOvercast
3:53 AM39.0 °F36.0 °F89 %30.31 in10.0 miCalmOvercast
4:53 AM37.9 °F35.1 °F89 %30.31 in10.0 miCalmOvercast
5:50 AM37.4 °F35.6 °F93 %30.26 in10.0 miCalmOvercast
5:53 AM37.0 °F35.1 °F93 %30.31 in10.0 miCalmOvercast
6:53 AM37.9 °F35.1 °F89 %30.31 in10.0 miCalmOvercast
7:18 AM37.4 °F35.6 °F93 %30.26 in8.0 miCalm0.00 inRainLight Rain
7:35 AM37.4 °F35.6 °F93 %30.26 in9.0 miCalm0.00 inRainLight Rain
7:53 AM37.9 °F36.0 °F93 %30.32 in10.0 miCalm0.00 inOvercast
8:53 AM37.9 °F37.0 °F97 %30.33 in10.0 miCalmOvercast
9:53 AM39.9 °F37.9 °F93 %30.33 in10.0 miSSE (160°)3.5 mphOvercast
10:53 AM43.0 °F37.9 °F82 %30.32 in10.0 miSW (220°)8.1 mphOvercast
11:06 AM42.8 °F37.4 °F81 %30.28 in10.0 miWSW (240°)8.1 mphOvercast
11:15 AM44.6 °F37.4 °F76 %30.28 in10.0 miSW (230°)10.4 mphOvercast
11:34 AM44.6 °F37.4 °F76 %30.27 in10.0 miWSW (240°)11.5 mphMostly Cloudy
11:53 AM45.0 °F37.9 °F76 %30.31 in10.0 miWSW (240°)17.3 mphMostly Cloudy
12:41 PM44.6 °F37.4 °F76 %30.25 in10.0 miWSW (240°)15.0 mphOvercast
12:53 PM46.0 °F37.0 °F71 %30.29 in10.0 miWSW (250°)17.3 mph24.2 mphMostly Cloudy
1:07 PM46.4 °F37.4 °F71 %30.25 in10.0 miWSW (250°)16.1 mphOvercast
1:40 PM46.4 °F37.4 °F71 %30.24 in10.0 miWSW (250°)13.8 mphMostly Cloudy
1:53 PM46.0 °F37.0 °F71 %30.28 in10.0 miWest (260°)13.8 mphScattered Clouds
2:53 PM45.0 °F37.0 °F74 %30.28 in10.0 miWest (260°)11.5 mphOvercast
4:53 PM42.1 °F36.0 °F79 %30.27 in10.0 miWest (270°)8.1 mphOvercast
5:53 PM41.0 °F36.0 °F82 %30.26 in10.0 miSSW (210°)3.5 mphMostly Cloudy
6:53 PM41.0 °F36.0 °F82 %30.26 in10.0 miSW (230°)6.9 mphOvercast
7:53 PM42.1 °F35.1 °F76 %30.25 in10.0 miSW (230°)6.9 mph0.00 inRainLight Rain
8:53 PM41.0 °F35.1 °F79 %30.25 in10.0 miWSW (250°)6.9 mph0.00 inOvercast
10:53 PM41.0 °F35.1 °F79 %30.24 in10.0 miWSW (250°)8.1 mphOvercast
Hourly data recorded from KPUW, located miles away from Princeton, Idaho







STORIES FROM OUR PARTNERS